FW4672 Weather Reports


Display with metric or nautical units.
time (UTC)temp
F
wind
direction
speed
MPH
gust
MPH
rain 1hr
in
rain 24hr
in
rain mn
in
humidity
%
barometer
mb
20260831112325 70 180 0.0 0.0 0.00 0.00 0.00 85 1031.0
20260831111327 70 180 0.0 0.0 0.00 0.00 0.00 85 1031.0
20260831105324 70 180 0.0 0.0 0.00 0.00 0.00 86 1030.9
20260831103325 70 180 0.0 0.0 0.00 0.00 0.00 86 1031.1
20260831102422 70 180 0.0 0.0 0.00 0.00 0.00 86 1031.0
20260831101425 70 180 0.0 0.0 0.00 0.00 0.00 86 1031.0
20260831100523 70 180 0.0 0.0 0.00 0.00 0.00 87 1031.1
20260831095525 70 180 0.0 0.0 0.00 0.00 0.00 87 1031.0
20260831093625 70 180 0.0 0.0 0.00 0.00 0.00 88 1031.0
20260831092723 70 180 0.0 0.0 0.00 0.00 0.00 88 1031.1
20260831090823 70 180 0.0 0.0 0.00 0.00 0.00 89 1031.1
20260831085825 70 189 0.0 0.0 0.00 0.00 0.00 89 1031.0
20260831084922 70 180 0.0 0.0 0.00 0.00 0.00 88 1031.2
20260831082925 70 180 0.0 0.0 0.00 0.00 0.00 90 1031.0
20260831081926 70 180 0.0 0.0 0.00 0.00 0.00 90 1031.2
20260831081024 70 180 0.0 0.0 0.00 0.00 0.00 90 1031.2
20260831080124 70 180 0.0 0.0 0.00 0.00 0.00 91 1031.2
20260831074223 70 180 0.0 0.0 0.00 0.00 0.00 91 1031.3
20260831073226 70 180 0.0 0.0 0.00 0.00 0.00 90 1031.2
20260831072323 70 180 0.0 0.0 0.00 0.00 0.00 91 1031.2
20260831071325 70 180 0.0 0.0 0.00 0.00 0.00 90 1031.3
20260831070324 70 180 0.0 0.0 0.00 0.00 0.00 90 1031.2
20260831065331 70 337 0.0 0.0 0.00 0.00 0.00 90 1031.3
20260831064331 70 337 0.0 0.0 0.00 0.00 0.00 90 1031.2
20260831063330 70 180 0.0 0.0 0.00 0.00 0.00 91 1031.1
20260831062330 70 180 0.0 0.0 0.00 0.00 0.00 91 1031.1
20260831061330 70 180 0.0 0.0 0.00 0.00 0.00 90 1031.0
20260831060332 70 180 0.0 0.0 0.00 0.00 0.00 90 1030.9
20260831054432 70 337 0.0 0.0 0.00 0.00 0.00 89 1031.2
20260831053433 70 317 0.0 0.0 0.00 0.00 0.00 89 1031.0
20260831052429 70 337 0.0 0.0 0.00 0.00 0.00 89 1031.0
20260831051432 70 337 0.0 0.0 0.00 0.00 0.00 89 1031.0
20260831050430 70 337 0.0 0.0 0.00 0.00 0.00 88 1031.1
20260831045432 70 337 0.0 0.0 0.00 0.00 0.00 88 1031.0
20260831044531 71 337 0.0 0.0 0.00 0.00 0.00 88 1031.0
20260831043629 71 337 0.0 0.0 0.00 0.00 0.00 88 1030.8
20260831042632 71 337 0.0 0.0 0.00 0.00 0.00 87 1030.8
20260831041630 71 337 0.0 0.0 0.00 0.00 0.00 86 1030.7
20260831040631 71 321 0.0 0.0 0.00 0.00 0.00 85 1030.6
20260831035630 72 337 0.0 0.0 0.00 0.00 0.00 85 1030.6
20260831034632 72 337 0.0 0.0 0.00 0.00 0.00 86 1030.4
20260831033630 72 337 0.0 0.0 0.00 0.00 0.00 86 1030.4
20260831032632 72 337 0.0 0.0 0.00 0.00 0.00 85 1030.3
20260831030631 72 336 0.0 0.0 0.00 0.00 0.00 85 1030.0
20260831022632 73 337 0.0 0.0 0.00 0.00 0.00 83 1029.7
20260831021729 74 180 0.0 0.0 0.00 0.00 0.00 82 1029.6
20260831020730 74 268 0.0 0.0 0.00 0.00 0.00 81 1029.6
20260831015829 74 315 0.0 0.0 0.00 0.00 0.00 81 1029.5
20260831014832 74 337 0.0 0.0 0.00 0.00 0.00 81 1029.4
20260831013832 75 337 0.0 0.0 0.00 0.00 0.00 80 1029.3
20260831012930 76 323 0.0 0.0 0.00 0.00 0.00 79 1029.2
20260831010931 77 337 0.0 0.0 0.00 0.00 0.00 77 1029.4
20260831004930 78 334 0.0 0.0 0.00 0.00 0.00 76 1029.4
20260831003932 78 336 0.0 0.0 0.00 0.00 0.00 75 1029.4
20260831001031 79 330 0.0 0.0 0.00 0.00 0.00 74 1029.4
20260831000032 79 337 0.0 0.0 0.00 0.00 0.00 75 1029.5
20260830235129 79 336 0.0 0.0 0.00 0.00 0.00 73 1029.4
20260830234130 80 336 0.0 0.0 0.00 0.00 0.00 74 1029.5
20260830233131 80 336 0.0 0.0 0.00 0.00 0.00 72 1029.5
20260830232229 80 331 0.0 0.0 0.00 0.00 0.00 74 1029.5
20260830231229 80 337 0.0 0.0 0.00 0.00 0.00 75 1029.6
20260830230231 80 322 0.0 0.0 0.00 0.00 0.00 75 1029.7
20260830225232 80 333 0.0 0.0 0.00 0.00 0.00 75 1029.6
20260830224331 80 332 0.0 0.0 0.00 0.00 0.00 75 1029.9
20260830223330 81 337 0.0 0.0 0.00 0.00 0.00 74 1030.0
20260830222332 80 333 0.0 0.0 0.00 0.00 0.00 75 1029.9
20260830221333 81 335 0.0 0.0 0.00 0.00 0.00 74 1030.0
20260830214531 80 336 0.0 0.0 0.00 0.00 0.00 77 1030.3
20260830213531 80 335 0.0 0.0 0.00 0.00 0.00 75 1030.5
20260830212531 80 200 0.0 0.0 0.00 0.00 0.00 75 1030.7
20260830211531 80 250 0.0 0.0 0.00 0.00 0.00 76 1030.7
20260830210530 80 334 0.0 0.0 0.00 0.00 0.00 76 1030.7
20260830205531 79 337 0.0 0.0 0.00 0.00 0.00 76 1030.7
20260830204533 79 324 0.0 0.0 0.00 0.00 0.00 76 1030.9
20260830203530 79 330 0.0 0.0 0.00 0.00 0.00 78 1030.8
20260830201531 79 328 0.0 0.0 0.00 0.00 0.00 77 1030.9
20260830200531 79 332 0.0 0.0 0.00 0.00 0.00 78 1030.8
20260830195530 79 330 0.0 0.0 0.00 0.00 0.00 78 1030.9
20260830194530 78 308 0.0 0.0 0.00 0.00 0.00 79 1031.0
20260830193531 79 333 0.0 0.0 0.00 0.00 0.00 79 1030.9
20260830192531 79 284 0.0 0.0 0.00 0.00 0.00 78 1031.1
20260830190629 79 333 0.0 0.0 0.00 0.00 0.00 79 1031.0
20260830185631 78 333 0.0 0.0 0.00 0.00 0.00 79 1031.2
20260830184632 78 301 0.0 0.0 0.00 0.00 0.00 79 1031.5
20260830182632 77 322 0.0 0.0 0.00 0.00 0.00 80 1031.3
20260830181629 77 333 0.0 0.0 0.00 0.00 0.00 80 1031.4
20260830180631 76 328 0.0 0.0 0.00 0.00 0.00 81 1031.5
20260830175730 76 195 0.0 0.0 0.00 0.00 0.00 81 1031.3
20260830174731 76 332 0.0 0.0 0.00 0.00 0.00 81 1031.2
20260830173730 77 240 0.0 0.0 0.00 0.00 0.00 82 1031.2
20260830172730 76 333 0.0 0.0 0.00 0.00 0.00 82 1031.1
20260830171732 76 335 0.0 0.0 0.00 0.00 0.00 83 1031.0
20260830170733 75 337 0.0 0.0 0.00 0.00 0.00 83 1030.8
20260830165732 75 337 0.0 0.0 0.00 0.00 0.00 83 1030.8
20260830164831 74 331 0.0 0.0 0.00 0.00 0.00 84 1030.8
20260830163829 74 297 0.0 0.0 0.00 0.00 0.00 84 1030.9
20260830162834 74 333 0.0 0.0 0.00 0.00 0.00 85 1030.9
20260830161929 74 311 0.0 0.0 0.00 0.00 0.00 85 1030.9
20260830155932 74 225 0.0 0.0 0.00 0.00 0.00 86 1030.8
20260830154932 74 180 0.0 0.0 0.00 0.00 0.00 85 1030.8
20260830153932 74 180 0.0 0.0 0.00 0.00 0.00 85 1030.7
20260830152930 74 180 0.0 0.0 0.00 0.00 0.00 84 1030.8
20260830151932 74 180 0.0 0.0 0.00 0.00 0.00 86 1030.8
20260830150931 73 180 0.0 0.0 0.00 0.00 0.00 86 1030.8
20260830145932 72 180 0.0 0.0 0.00 0.00 0.00 88 1030.9
20260830144931 72 180 0.0 0.0 0.00 0.00 0.00 87 1030.8
20260830143931 72 331 0.0 0.0 0.00 0.00 0.00 88 1030.7
20260830142931 72 180 0.0 0.0 0.00 0.00 0.00 88 1030.8
20260830141931 72 188 0.0 0.0 0.00 0.00 0.00 88 1030.8
20260830141030 72 180 0.0 0.0 0.00 0.00 0.00 89 1030.7
20260830140032 72 180 0.0 0.0 0.00 0.00 0.00 89 1030.7
20260830135031 71 180 0.0 0.0 0.00 0.00 0.00 90 1030.6
20260830133033 71 180 0.0 0.0 0.00 0.00 0.00 90 1030.4
20260830132129 71 180 0.0 0.0 0.00 0.00 0.00 89 1030.3
20260830131130 71 180 0.0 0.0 0.00 0.00 0.00 89 1030.1
20260830130130 72 180 0.0 0.0 0.00 0.00 0.00 89 1030.1
20260830125134 72 180 0.0 0.0 0.00 0.00 0.00 90 1030.1
20260830124131 72 180 0.0 0.0 0.00 0.00 0.00 90 1029.9
20260830123129 72 180 0.0 0.0 0.00 0.00 0.00 90 1030.1
20260830122132 72 180 0.0 0.0 0.00 0.00 0.00 90 1030.0
20260830121230 72 180 0.0 0.0 0.00 0.00 0.00 91 1030.0
20260830120231 72 180 0.0 0.0 0.00 0.00 0.00 91 1029.9
20260830115230 71 180 0.0 0.0 0.00 0.00 0.00 92 1030.0
20260830114329 71 180 0.0 0.0 0.00 0.00 0.00 91 1029.9
20260830113331 71 180 0.0 0.0 0.00 0.00 0.00 93 1030.1
20260830112430 71 180 0.0 0.0 0.00 0.00 0.00 93 1030.0